Location: Hungerford
(51.4167°N, 1.5167°W)
Time: 08:48:07
(UTC+00:00)

Cosmos 1048 Rocket - Pass Details

Date: 19 January 2021
Orbit: 744 x 791 km, 74.0° (Epoch: 24 February)

Event Time Altitude Azimuth Distance (km) Brightness Sun altitude
Rises 19:07:08 0° 340° (NNW) 3,199 7.4 -23.4°
Reaches altitude 10° 19:10:02 10° 355° (N) 2,270 6.5 -23.8°
Enters shadow 19:11:32 16° 10° (N) 1,889 5.9 -24.0°
